Notices

What's New in latest Release from April 7th, 2021:

- Updated Glossary, including Speed of Maximum Gust, and Total Hourly Precipitation

- Updated national and regional climate services offices contacts and prices information

- Addition of station inventory lists for 1981-2010, 1971-2000, and 1961-1990 Normals.

If you haven't already, please take our survey and provide feedback about our website: https://eccc.sondage-survey.ca/f/LanguageSelection.aspx?s=442ca660-fcf1-47c0-95a9-59707d6fd709

Hourly Data Report for March 09, 2021

NANAIMO A
BRITISH COLUMBIA
Current Station Operator: NAVCAN

49°03'16.000" N
123°52'12.000" W
28.00 m
1025365
YCD

Download Data

Hourly Data (March 2021)
Hourly Data Report for March 9, 2021
TIME
LST
Temp Definition
°C
Dew Point Definition
°C
Rel Hum Definition
%
Precip. Amount Definition
mm

Wind Dir Definition
10's deg

Wind Spd Definition
km/h
Visibility Definition
km
Stn Press Definition
kPa
Hmdx Definition


Wind Chill Definition


Weather Definition


00:00 2.3 -0.1 84 LegendMM 29 4 LegendMM 101.15     LegendNANA
01:00 1.7 -0.4 86 LegendMM 21 3 LegendMM 101.15     LegendNANA
02:00 2.6 0.6 86 LegendMM 28 2 LegendMM 101.18     LegendNANA
03:00 3.0 0.7 85 LegendMM 32 3 LegendMM 101.16     LegendNANA
04:00 3.5 0.7 82 LegendMM 27 10 LegendMM 101.17     LegendNANA
05:00 3.4 1.3 86 LegendMM 26 3 LegendMM 101.16     LegendNANA
06:00 3.8 1.1 83 LegendMM 27 7 LegendMM 101.16     LegendNANA
07:00 3.7 1.2 84 LegendMM 28 4 LegendMM 101.16     LegendNANA
08:00 4.5 1.9 83 LegendMM 25 6 LegendMM 101.18     LegendNANA
09:00 6.0 2.1 76 LegendMM 23 5 LegendMM 101.20     LegendNANA
10:00 7.7 0.8 62 LegendMM 13 7 LegendMM 101.22     LegendNANA
11:00 7.5 1.0 63 LegendMM 18 6 LegendMM 101.24     LegendNANA
12:00 8.2 0.8 59 LegendMM 13 4 LegendMM 101.24     LegendNANA
13:00 9.0 0.2 54 LegendMM 8 9 LegendMM 101.21     LegendNANA
14:00 9.0 0.1 53 LegendMM 6 13 LegendMM 101.19     LegendNANA
15:00 9.6 0.4 52 LegendMM 5 9 LegendMM 101.20     LegendNANA
16:00 9.2 0.3 53 LegendMM 4 7 LegendMM 101.17     LegendNANA
17:00 8.1 3.4 72 LegendMM 1 7 LegendMM 101.20     LegendNANA
18:00 6.8 2.8 75 LegendMM 27 7 LegendMM 101.21     LegendNANA
19:00 4.7 2.5 86 LegendMM 25 13 LegendMM 101.22     LegendNANA
20:00 3.8 1.7 86 LegendMM 26 12 LegendMM 101.21     LegendNANA
21:00 3.1 1.5 89 LegendMM 27 8 LegendMM 101.22     LegendNANA
22:00 2.6 0.8 88 LegendMM 26 13 LegendMM 101.25     LegendNANA
23:00 2.4 0.4 87 LegendMM 26 15 LegendMM 101.23     LegendNANA

Notes on Data Quality.

Legend

  • E = Estimated
  • M = Missing
  • NA = Not Available*
  • [empty] = Indicates an unobserved value
Date modified: